Tracking 23762 objects as of 19-Oct-2021
HD Live streaming from Space Station
objects crossing your sky now

CZ-2D DEB

Track CZ-2D DEB now!
10-day predictions


NORAD ID: 43715
Int'l Code: 2018-094F
Perigee: 456.3 km
Apogee: 483.0 km
Inclination: 97.3 °
Period: 93.8 minutes
Semi major axis: 6840 km
RCS: Unknown
Launch date: November 19, 2018
Source: People's Republic of China (PRC)
Launch site: Jiuquan Satellite Launch Center, China (JSC)

Note: This is SATELLITE DEBRIS
aabbcc
Your satellite tracking list
Your tracking list is empty




NASA's NSSDC Master Catalog

Two Line Element Set (TLE):
1 43715U 18094F   21291.98453655  .00009862  00000-0  29601-3 0  9998
2 43715  97.3499 302.7778 0019550 137.0267 223.2507 15.34460067162649
Source of the keplerian elements: AFSPC